TimeCST,TemperatureF,Dew PointF,Humidity,Sea Level PressureIn,VisibilityMPH,Wind Direction,Wind SpeedMPH,Gust SpeedMPH,PrecipitationIn,Events,Conditions,WindDirDegrees,DateUTC
12:55 AM,23.0,17.6,80,30.28,10.0,NNW,9.2,-,N/A,,Overcast,330,2013-03-02 06:55:00
1:55 AM,21.9,16.0,78,30.32,10.0,NNW,6.9,-,N/A,,Overcast,330,2013-03-02 07:55:00
2:55 AM,21.9,16.0,78,30.31,10.0,NNW,6.9,-,N/A,,Overcast,330,2013-03-02 08:55:00
3:55 AM,21.9,15.1,75,30.30,10.0,NW,5.8,-,N/A,,Overcast,320,2013-03-02 09:55:00
4:55 AM,21.9,15.1,75,30.32,10.0,NW,4.6,-,N/A,,Overcast,310,2013-03-02 10:55:00
5:55 AM,21.9,15.1,75,30.33,10.0,NNW,5.8,-,N/A,,Overcast,330,2013-03-02 11:55:00
6:37 AM,21.2,14.0,74,30.28,10.0,NNW,8.1,-,N/A,,Overcast,330,2013-03-02 12:37:00
6:55 AM,21.9,14.0,72,30.34,10.0,NNW,8.1,-,N/A,,Overcast,330,2013-03-02 12:55:00
7:55 AM,23.0,14.0,68,30.34,10.0,NNW,6.9,-,N/A,,Overcast,330,2013-03-02 13:55:00
8:52 AM,23.0,15.8,74,30.30,10.0,NNW,11.5,-,N/A,,Partly Cloudy,340,2013-03-02 14:52:00
8:55 AM,23.0,15.1,72,30.35,10.0,NNW,8.1,-,N/A,,Partly Cloudy,330,2013-03-02 14:55:00
9:55 AM,25.0,16.0,69,30.36,10.0,NNW,11.5,18.4,N/A,,Clear,330,2013-03-02 15:55:00
10:31 AM,24.8,15.8,69,30.30,10.0,NW,10.4,-,N/A,,Mostly Cloudy,310,2013-03-02 16:31:00
10:50 AM,26.6,15.8,64,30.30,10.0,NW,10.4,-,N/A,,Scattered Clouds,310,2013-03-02 16:50:00
10:55 AM,26.1,17.1,69,30.35,10.0,NW,8.1,-,N/A,,Partly Cloudy,320,2013-03-02 16:55:00
11:55 AM,28.0,16.0,61,30.34,10.0,North,10.4,-,N/A,,Clear,350,2013-03-02 17:55:00
12:55 PM,28.0,16.0,61,30.32,10.0,North,5.8,-,N/A,,Clear,360,2013-03-02 18:55:00
1:55 PM,28.9,16.0,58,30.30,10.0,NW,6.9,-,N/A,,Scattered Clouds,310,2013-03-02 19:55:00
2:55 PM,30.0,16.0,56,30.30,10.0,North,6.9,-,N/A,,Clear,350,2013-03-02 20:55:00
3:55 PM,30.9,15.1,52,30.29,10.0,NNW,5.8,-,N/A,,Clear,340,2013-03-02 21:55:00
4:55 PM,28.9,16.0,58,30.28,10.0,Calm,Calm,-,N/A,,Clear,0,2013-03-02 22:55:00
5:55 PM,26.1,15.1,63,30.29,10.0,WNW,4.6,-,N/A,,Clear,290,2013-03-02 23:55:00
6:55 PM,23.0,14.0,68,30.29,10.0,WNW,4.6,-,N/A,,Clear,290,2013-03-03 00:55:00
7:55 PM,16.0,10.9,81,30.28,10.0,WSW,4.6,-,N/A,,Clear,240,2013-03-03 01:55:00
8:55 PM,12.9,10.0,88,30.28,10.0,West,4.6,-,N/A,,Clear,260,2013-03-03 02:55:00
9:55 PM,12.9,10.0,88,30.28,10.0,West,3.5,-,N/A,,Clear,260,2013-03-03 03:55:00
10:55 PM,10.9,7.0,84,30.27,9.0,Calm,Calm,-,N/A,,Clear,0,2013-03-03 04:55:00
11:55 PM,14.0,10.0,84,30.26,10.0,Calm,Calm,-,N/A,,Overcast,0,2013-03-03 05:55:00